Weather History for Milton, FL

Change the Weather History Date:

Monday, October 1, 2012

  Actual Average (KNSE) Record (KNSE)
Temperature  
Mean Temperature 75 °F -  
Max Temperature 82 °F 80 °F 90 °F (2006)
Min Temperature 66 °F 63 °F 53 °F (2001)
Cooling Degree Days 10    
Growing Degree Days 25 (Base 50)    
Moisture  
Dew Point 70 °F    
Average Humidity 85    
Maximum Humidity 94    
Minimum Humidity 62    
Precipitation  
Precipitation 0.55 in - - ()
Sea Level Pressure  
Sea Level Pressure 29.59 in    
Wind  
Wind Speed 9 mph (South)    
Max Wind Speed 18 mph    
Max Gust Speed 26 mph    
Visibility 9 miles    
Events Rain , Thunderstorm    
Averages and records for this station are not official NWS values.
T = Trace of Precipitation, MM = Missing Value Source: NWS Daily Summary

Daily Weather History Graph

Daily Weather History Graph

Search for Another Location

Airport:

Trip Planner

Search our weather history database for the weather conditions in past years. The results will help you decide how hot, cold, wet, or windy it might be!

Date:

Astronomy

Oct. 01, 2012 Rise Set
Actual Time 6:41 AM CDT 6:32 PM CDT
Civil Twilight 6:17 AM CDT 6:56 PM CDT
Nautical Twilight 5:49 AM CDT 7:24 PM CDT
Astronomical Twilight 5:21 AM CDT 7:52 PM CDT
Moon 7:20 PM CDT (10/1) 8:01 AM CDT (10/1)
Length of Visible Light 12h 38m
Length of Day
11h 50m
Full, 98% of the Moon is Illuminated
Oct 1
Full
Oct 8
Last Quarter
Oct 15
New
Oct 21
First Quarter
Oct 29
Full

Hourly Weather History & Observations

Time (CDT) Temp. Heat Index Dew Point Humidity Pressure Visibility Wind Dir Wind Speed Gust Speed Precip Events Conditions
12:45 AM 75.2 °F - 73.4 °F 94% 29.64 in 10.0 mi South 8.1 mph - 0.02 in Rain Light Rain
12:56 AM 75.9 °F - 73.9 °F 94% 29.60 in 5.0 mi South 6.9 mph - 0.08 in Rain Heavy Rain
1:20 AM 78.8 °F - 75.2 °F 89% 29.63 in 10.0 mi South 10.4 mph - 0.00 in   Mostly Cloudy
1:56 AM 77.0 °F - 72.0 °F 84% 29.58 in 10.0 mi South 12.7 mph 23.0 mph 0.00 in   Clear
2:44 AM 75.2 °F - 73.4 °F 94% 29.59 in 10.0 mi SSE 10.4 mph - N/A   Mostly Cloudy
2:52 AM 77.0 °F - 73.4 °F 89% 29.59 in 10.0 mi SSE 9.2 mph - N/A Thunderstorm Thunderstorm
2:56 AM 77.0 °F - 73.0 °F 88% 29.55 in 10.0 mi SSE 10.4 mph - 0.01 in Rain , Thunderstorm Light Thunderstorms and Rain
3:03 AM 75.2 °F - 73.4 °F 94% 29.59 in 5.0 mi SSE 8.1 mph - 0.07 in Rain , Thunderstorm Heavy Thunderstorms and Rain
3:08 AM 75.2 °F - 73.4 °F 94% 29.60 in 2.5 mi South 11.5 mph 18.4 mph 0.20 in Rain Heavy Rain
3:11 AM 75.2 °F - 73.4 °F 94% 29.59 in 3.0 mi South 18.4 mph 26.5 mph 0.21 in Rain Heavy Rain
3:28 AM 73.4 °F - 71.6 °F 94% 29.59 in 10.0 mi South 11.5 mph - 0.21 in   Overcast
3:35 AM 73.4 °F - 71.6 °F 94% 29.59 in 10.0 mi South 6.9 mph - 0.21 in   Overcast
3:56 AM 75.0 °F - 72.0 °F 90% 29.55 in 10.0 mi South 9.2 mph - 0.21 in Rain Light Rain
4:03 AM 75.2 °F - 71.6 °F 89% 29.59 in 10.0 mi South 16.1 mph 23.0 mph 0.01 in Rain Light Rain
4:25 AM 73.4 °F - 71.6 °F 94% 29.59 in 10.0 mi South 13.8 mph 23.0 mph 0.01 in   Overcast
4:56 AM 73.9 °F - 72.0 °F 93% 29.54 in 10.0 mi South 10.4 mph - 0.16 in   Overcast
5:16 AM 73.4 °F - 71.6 °F 94% 29.58 in 10.0 mi South 10.4 mph - 0.00 in Rain Light Rain
5:31 AM 75.2 °F - 71.6 °F 89% 29.58 in 10.0 mi South 11.5 mph - 0.00 in   Overcast
5:43 AM 75.2 °F - 71.6 °F 89% 29.58 in 10.0 mi South 12.7 mph - 0.00 in   Mostly Cloudy
5:56 AM 73.9 °F - 72.0 °F 93% 29.54 in 10.0 mi South 10.4 mph - 0.00 in   Mostly Cloudy
6:56 AM 75.0 °F - 72.0 °F 90% 29.55 in 9.0 mi South 11.5 mph - 0.01 in Rain Light Rain
7:05 AM 75.2 °F - 71.6 °F 89% 29.59 in 10.0 mi Variable 5.8 mph - 0.00 in Rain Light Rain
7:31 AM 75.2 °F - 71.6 °F 89% 29.60 in 10.0 mi South 8.1 mph - 0.00 in   Mostly Cloudy
7:51 AM 75.2 °F - 73.4 °F 94% 29.60 in 10.0 mi South 5.8 mph - 0.00 in Thunderstorm Thunderstorm
7:56 AM 75.0 °F - 73.0 °F 94% 29.56 in 10.0 mi South 5.8 mph - 0.00 in Thunderstorm Thunderstorm
8:15 AM 75.2 °F - 73.4 °F 94% 29.61 in 10.0 mi South 5.8 mph - N/A   Clear
8:56 AM 78.1 °F - 73.0 °F 84% 29.58 in 5.0 mi Variable 4.6 mph - 0.05 in Rain Heavy Rain
9:56 AM 79.0 °F - 73.0 °F 82% 29.59 in 10.0 mi SSW 6.9 mph - 0.03 in   Mostly Cloudy
10:56 AM 80.1 °F 83.6 °F 71.1 °F 74% 29.58 in 10.0 mi Variable 6.9 mph - N/A   Mostly Cloudy
11:56 AM 81.0 °F 84.1 °F 69.1 °F 67% 29.58 in 10.0 mi SW 9.2 mph 18.4 mph N/A   Overcast
12:56 PM 80.1 °F 82.7 °F 68.0 °F 67% 29.57 in 10.0 mi SW 5.8 mph - N/A   Mostly Cloudy
1:56 PM 79.0 °F - 66.9 °F 66% 29.57 in 10.0 mi SW 8.1 mph 20.7 mph N/A   Mostly Cloudy
2:56 PM 77.0 °F - 66.0 °F 69% 29.57 in 10.0 mi WSW 8.1 mph 17.3 mph N/A   Overcast
3:03 PM 77.0 °F - 66.2 °F 69% 29.61 in 10.0 mi WSW 6.9 mph - N/A   Overcast
4:56 PM 77.0 °F - 63.0 °F 62% 29.57 in 10.0 mi SSW 9.2 mph 17.3 mph N/A   Scattered Clouds
5:56 PM 73.9 °F - 62.1 °F 66% 29.58 in 10.0 mi Variable 5.8 mph - N/A   Overcast
6:56 PM 73.0 °F - 63.0 °F 71% 29.60 in 10.0 mi SW 5.8 mph - N/A   Overcast
7:56 PM 71.1 °F - 62.1 °F 73% 29.62 in 10.0 mi Variable 4.6 mph - N/A   Overcast
8:56 PM 69.1 °F - 62.1 °F 78% 29.65 in 10.0 mi West 3.5 mph - N/A   Mostly Cloudy
9:56 PM 69.1 °F - 61.0 °F 75% 29.66 in 10.0 mi Variable 4.6 mph - N/A   Overcast
11:56 PM 66.0 °F - 60.1 °F 81% 29.69 in 10.0 mi Variable 3.5 mph - N/A   Overcast